Flag for U.S.A. Weather past 2 weeks in Bloomington, Indiana, U.S.A.

Now
88 °F

Broken clouds.


Feels Like: 97 °F
Forecast: 72 / 87 °F
Wind: No wind

Location: Monroe County Airport

Current Time: Jul 28, 2015 at 2:50:34 PM

Latest Report: Jul 28, 2015 at 1:53 PM


Visibility: 10 mi

Pressure: 29.96 "Hg

Humidity: 63%

Dew point: 74 °F

Location of BloomingtonLocation

Historic Weather in Bloomington — Graph

°F

Bloomington temperature yesterday

Maximum temperature yesterday: 88 °F (at 4:53 PM)
Minimum temperature yesterday: 71 °F (at 7:00 AM)
Average temperature yesterday: 79 °F

Past Weeks' High & Low Weather Summary

 TemperatureHumidityPressure
High90 °F (Jul 17, 1:53 PM)100% (Jul 24, 7:01 AM)30.05 "Hg (Jul 24, 7:01 AM)
Low56 °F (Jul 22, 6:53 AM)39% (Jul 22, 1:53 PM)29.62 "Hg (Jul 14, 3:53 AM)
Average76 °F78%29.90 "Hg
* Reported Jul 13 12:53 PM — Jul 28 12:53 PM, Bloomington, Weather by CustomWeather, © 2015

Note: Actual official high and low records may vary slightly from our data, if they occured in-between our weather recording intervals... More about our weather records

Advertising

Bloomington weather history for previous 24 hours

 ConditionsComfort  
Time TempWeatherWind HumidityBarometerVisibility
12:53 PM
Tue, Jul 28
86 °FPartly sunny.No wind70%29.97 "Hg10 mi
11:53 AM87 °FScattered clouds.No wind67%29.97 "Hg10 mi
10:53 AM84 °FSunny.3 mph77%29.96 "Hg10 mi
9:53 AM81 °FSunny.No wind79%29.97 "Hg10 mi
8:53 AM78 °FSunny.6 mph84%29.96 "Hg10 mi
7:53 AM75 °FSunny.No wind94%29.96 "Hg8 mi
6:53 AM71 °FClear.No wind93%29.96 "Hg7 mi
5:53 AM70 °FClear.No wind97%29.94 "Hg7 mi
4:53 AM73 °FClear.No wind94%29.94 "Hg10 mi
3:53 AM73 °FClear.No wind94%29.94 "Hg10 mi
2:53 AM74 °FClear.3 mph91%29.94 "Hg10 mi
1:53 AM75 °FClear.6 mph90%29.94 "Hg10 mi
12:53 AM76 °FClear.7 mph91%29.96 "Hg10 mi
11:53 PM
Mon, Jul 27
75 °FClear.No wind96%29.96 "Hg9 mi
10:53 PM76 °FPassing clouds.No wind94%29.97 "Hg10 mi
9:53 PM78 °FPassing clouds.No wind87%29.95 "Hg10 mi
8:53 PM79 °FSunny.No wind90%29.93 "Hg10 mi
7:53 PM85 °FScattered clouds.5 mph72%29.91 "Hg10 mi
6:53 PM85 °FOvercast.No wind70%29.91 "Hg10 mi
5:53 PM87 °FPartly sunny.3 mph65%29.91 "Hg10 mi
4:53 PM88 °FPassing clouds.3 mph61%29.92 "Hg10 mi
4:01 PM87 °FScattered clouds.8 mph67%29.96 "Hg10 mi
2:53 PM85 °FPartly sunny.7 mph75%29.94 "Hg10 mi
Weather by CustomWeather, © 2015

See weather overviewHow to use our weather pages